Volver al catálogo

STARLINK-33683

ActivoComunicacionesVLEO
NORAD 63573·PAYLOAD·🇺🇸 United States

Lanzado Apr 14, 2025 desde Cape Canaveral Space Force Station

Loading…

Próximos Pases (próximas 24 horas)

TLE

ActualizadoSource: CelesTrak SupGP

Época: Sep 15, 2026, 02:34 UTC

1 63573C 25076E   26258.10743056  .00043010  00000+0  15581-2 0  2580
2 63573  43.0006 332.2884 0001459 267.0286 166.4944 15.27551973    19

Sigue STARLINK-33683 en tiempo real con AllMySat

Download on the App Store